FW2545 Weather Reports


Display with metric or nautical units.
time (UTC)temp
F
wind
direction
speed
MPH
gust
MPH
rain 1hr
in
rain 24hr
in
rain mn
in
humidity
%
barometer
mb
20260510131644 43 187 0.0 2.0 0.00 0.00 0.00 80 1018.3
20260510130032 42 177 1.0 4.0 0.00 0.00 0.00 80 1018.4
20260510123031 42 202 0.0 3.0 0.00 0.00 0.00 79 1018.3
20260510121530 42 190 2.0 4.0 0.00 0.00 0.00 79 1018.2
20260510120029 42 248 2.0 4.0 0.00 0.00 0.00 78 1018.1
20260510114530 42 261 2.0 6.0 0.00 0.00 0.00 78 1018.0
20260510113029 43 224 0.0 3.0 0.00 0.00 0.00 77 1018.0
20260510111605 43 200 2.0 4.0 0.00 0.00 0.00 76 1018.2
20260510110032 43 189 1.0 4.0 0.00 0.00 0.00 75 1018.4
20260510103144 44 202 0.0 3.0 0.00 0.00 0.00 75 1018.2
20260510101528 44 227 1.0 5.0 0.00 0.00 0.00 74 1018.1
20260510100032 45 222 1.0 4.0 0.00 0.00 0.00 73 1018.1
20260510094604 45 232 1.0 4.0 0.00 0.00 0.00 73 1018.2
20260510093029 45 233 1.0 4.0 0.00 0.00 0.00 72 1018.4
20260510091529 46 214 2.0 4.0 0.00 0.00 0.00 71 1018.6
20260510090032 47 242 2.0 4.0 0.00 0.00 0.00 70 1018.8
20260510084646 47 216 2.0 4.0 0.00 0.00 0.00 70 1018.9
20260510083107 47 208 1.0 4.0 0.00 0.00 0.00 71 1019.0
20260510081530 47 236 1.0 3.0 0.00 0.00 0.00 70 1019.0
20260510080028 47 220 2.0 4.0 0.00 0.00 0.00 69 1019.0
20260510074533 48 228 1.0 4.0 0.00 0.00 0.00 68 1018.9
20260510073030 49 226 1.0 4.0 0.00 0.00 0.00 68 1018.9
20260510071532 48 218 1.0 4.0 0.00 0.00 0.00 68 1018.9
20260510064603 49 224 2.0 5.0 0.00 0.00 0.00 65 1018.9
20260510063033 49 214 2.0 5.0 0.00 0.00 0.00 65 1018.9
20260510060031 51 251 1.0 4.0 0.00 0.00 0.00 64 1018.9
20260510054608 51 243 2.0 5.0 0.00 0.00 0.00 63 1018.8
20260510053027 51 212 2.0 4.0 0.00 0.00 0.00 63 1018.7
20260510051529 52 251 3.0 5.0 0.00 0.00 0.00 61 1018.7
20260510050030 54 220 2.0 4.0 0.00 0.00 0.00 61 1018.8
20260510044529 54 203 1.0 5.0 0.00 0.00 0.00 62 1018.8
20260510043033 53 232 0.0 3.0 0.00 0.00 0.00 63 1018.9
20260510041530 55 332 0.0 3.0 0.00 0.00 0.00 62 1018.6
20260510040031 56 67 0.0 0.0 0.00 0.00 0.00 59 1018.4
20260510034528 57 67 0.0 0.0 0.00 0.00 0.00 56 1018.4
20260510033031 59 66 0.0 1.0 0.00 0.00 0.00 51 1018.4
20260510024532 67 19 2.0 6.0 0.00 0.00 0.00 35 1018.1
20260510023029 68 9 4.0 6.0 0.00 0.00 0.00 34 1018.1
20260510021529 71 4 4.0 6.0 0.00 0.00 0.00 32 1018.2
20260510020031 72 19 4.0 7.0 0.00 0.00 0.00 32 1018.2
20260510014530 73 18 5.0 9.0 0.00 0.00 0.00 31 1018.4
20260510013030 74 16 3.0 8.0 0.00 0.00 0.00 32 1018.4
20260510011531 74 24 4.0 8.0 0.00 0.00 0.00 33 1018.5
20260510010030 74 18 3.0 8.0 0.00 0.00 0.00 34 1018.6
20260510003031 75 20 4.0 9.0 0.00 0.00 0.00 32 1018.6
20260510001530 76 18 5.0 12.0 0.00 0.00 0.00 31 1018.8
20260510000146 76 8 5.0 11.0 0.00 0.00 0.00 31 1018.9
20260509234529 77 4 4.0 10.0 0.00 0.00 0.00 31 1019.1
20260509233031 78 9 4.0 11.0 0.00 0.00 0.00 32 1019.3
20260509231531 78 29 4.0 10.0 0.00 0.00 0.00 32 1019.5
20260509230026 78 4 4.0 10.0 0.00 0.00 0.00 32 1019.8
20260509223029 79 13 4.0 11.0 0.00 0.00 0.00 32 1020.2
20260509221532 79 317 3.0 9.0 0.00 0.00 0.00 32 1020.4
20260509220104 78 38 3.0 7.0 0.00 0.00 0.00 33 1020.6
20260509214602 79 9 4.0 13.0 0.00 0.00 0.00 34 1020.8
20260509211559 79 48 3.0 8.0 0.00 0.00 0.00 36 1021.3
20260509210030 77 12 4.0 13.0 0.00 0.00 0.00 37 1021.4
20260509204531 77 13 4.0 11.0 0.00 0.00 0.00 37 1021.6
20260509203030 77 26 2.0 9.0 0.00 0.00 0.00 38 1021.7
20260509201605 77 53 4.0 11.0 0.00 0.00 0.00 40 1022.0
20260509200030 75 23 3.0 7.0 0.00 0.00 0.00 41 1022.3
20260509194528 74 64 3.0 10.0 0.00 0.00 0.00 43 1022.4
20260509193030 73 341 3.0 12.0 0.00 0.00 0.00 45 1022.7
20260509191607 73 15 4.0 9.0 0.00 0.00 0.00 45 1022.8
20260509190030 71 12 3.0 9.0 0.00 0.00 0.00 47 1023.0
20260509184532 69 360 2.0 8.0 0.00 0.00 0.00 51 1023.2
20260509183028 67 360 4.0 10.0 0.00 0.00 0.00 53 1023.3
20260509181532 66 352 3.0 7.0 0.00 0.00 0.00 54 1023.4
20260509180028 64 5 4.0 10.0 0.00 0.00 0.00 55 1023.4
20260509174530 64 351 3.0 8.0 0.00 0.00 0.00 57 1023.5
20260509171530 62 24 3.0 8.0 0.00 0.00 0.00 60 1023.7
20260509170035 61 25 2.0 7.0 0.00 0.00 0.00 62 1023.8
20260509164531 60 11 2.0 10.0 0.00 0.00 0.00 64 1024.0
20260509161547 58 346 2.0 8.0 0.00 0.00 0.00 70 1024.3
20260509154645 54 39 2.0 8.0 0.00 0.00 0.00 81 1024.2
20260509153033 51 65 1.0 4.0 0.00 0.00 0.00 85 1024.2
20260509151538 48 244 0.0 0.0 0.00 0.00 0.00 88 1024.2
20260509150036 46 247 0.0 2.0 0.00 0.00 0.00 89 1024.2
20260509144537 45 247 0.0 2.0 0.00 0.00 0.00 90 1024.2
20260509141532 41 203 0.0 3.0 0.00 0.00 0.00 91 1024.0
20260509140039 39 201 2.0 5.0 0.00 0.00 0.00 91 1023.9
20260509133036 37 202 0.0 2.0 0.00 0.00 0.00 90 1023.5